Japanese version Home page |
Updated on February 8, 2023 |
Profile
|
Orbital ElementsEpoch = 2014 Jan. 23.0 TT T = 2014 Jan. 19.07135 TT Peri. = 235.29274 e = 0.1210695 Node = 243.29376 2000.0 q = 2.7846295 AU Incl. = 16.96443 a = 3.1682022 AU n = 0.17477719 P = 5.64 years
|
Magnitudes GraphH = 17.7 G = 0.15
|
The orbital elements are printed on CBET 5210.
|